Tracking 20037 objects as of 20-Nov-2019
Live streaming from Space Station
objects crossing your sky now

COSMOS 2303

Track COSMOS 2303 now!
10-day predictions
COSMOS 2303 is classified as:


NORAD ID: 23445
Int'l Code: 1994-086E
Perigee: 1,419.9 km
Apogee: 1,436.2 km
Inclination: 82.6 °
Period: 114.2 minutes
Semi major axis: 7799 km
RCS: 1.1077 m2 (large)
Launch date: December 26, 1994
Source: Commonwealth of Independent States (former USSR) (CIS)
Launch site: PLESETSK MISSILE AND SPACE COMPLEX (PKMTR)
aabbcc
Your satellite tracking list
Your tracking list is empty




NASA's NSSDC Master Catalog

Two Line Element Set (TLE):
1 23445U 94086E   19323.72182706 +.00000031 +00000-0 +11475-3 0  9991
2 23445 082.5761 074.0091 0010498 227.2922 254.9159 12.60491441145421
Source of the keplerian elements: AFSPC